Location: Sternwarte_Laufen
(47.9344°N, 12.9346°E)
Time: 22:06:38
(UTC+02:00)

ISS - Visible Passes

Search period start: 18 July 2018 00:00
Search period end: 28 July 2018 00:00
Orbit: 402 x 408 km, 51.6° (Epoch: 19 July)

Date Brightness Start Highest point End Pass type
(mag) Time Alt. Az. Time Alt. Az. Time Alt. Az.
18 Jul -3.6 00:50:11 71° NNW 00:50:11 71° NNW 00:53:28 10° ENE visible
18 Jul -2.5 02:23:48 10° WNW 02:26:57 41° N 02:30:06 10° ENE visible
18 Jul -3.6 04:00:25 10° WNW 04:03:44 74° NNE 04:07:02 10° ESE visible
18 Jul-0.622:25:44E22:25:44E22:17:23SSWvisible
18 Jul -4.0 23:58:10 78° ESE 23:58:10 78° ESE 00:01:21 10° ENE visible
19 Jul -2.6 01:31:35 10° W 01:34:44 43° N 01:37:55 10° ENE visible
19 Jul -3.1 03:08:19 10° WNW 03:11:35 55° NNE 03:14:50 10° E visible
19 Jul -3.4 04:44:55 10° WNW 04:48:02 40° SSW 04:51:09 10° SE visible
19 Jul -3.7 23:02:49 10° SW 23:06:00 51° SSE 23:09:12 10° ENE visible
20 Jul -2.9 00:39:19 10° W 00:42:32 49° NNW 00:45:46 10° ENE visible
20 Jul -2.7 02:16:11 10° WNW 02:19:23 45° N 02:22:35 10° E visible
20 Jul -3.9 03:52:44 10° WNW 03:56:00 65° SSW 03:59:16 10° SE visible
20 Jul -3.1 22:11:03 10° SSW 22:14:00 31° SE 22:16:57 10° E visible
20 Jul -3.4 23:47:05 10° W 23:50:21 63° NNW 23:53:37 10° ENE visible
21 Jul -2.5 01:24:00 10° WNW 01:27:10 41° N 01:30:19 10° ENE visible
21 Jul -3.8 03:00:35 10° WNW 03:03:55 83° NNE 03:07:12 10° ESE visible
21 Jul -2.5 04:37:32 10° W 04:40:05 21° SW 04:42:37 10° S visible
21 Jul -3.9 22:54:54 10° WSW 22:58:11 88° NNW 23:01:30 10° ENE visible
22 Jul -2.5 00:31:46 10° WNW 00:34:55 42° N 00:38:05 10° ENE visible
22 Jul -3.3 02:08:28 10° WNW 02:11:44 60° NNE 02:15:00 10° E visible
22 Jul -3.2 03:45:06 10° WNW 03:48:07 33° SW 03:51:08 10° SSE visible
22 Jul -3.8 22:02:51 10° SW 22:06:04 61° SSE 22:09:19 10° ENE visible
22 Jul -2.7 23:39:29 10° W 23:42:40 46° N 23:45:52 10° ENE visible
23 Jul -2.9 01:16:19 10° WNW 01:19:31 48° N 01:20:47 30° ENE visible
23 Jul -1.4 02:52:51 10° WNW 02:53:17 13° WNW 02:53:17 13° WNW visible
23 Jul -3.2 22:47:11 10° W 22:50:26 57° NNW 22:53:40 10° ENE visible
24 Jul -2.6 00:24:06 10° WNW 00:27:15 42° N 00:29:04 21° ENE visible
24 Jul -1.6 02:00:39 10° WNW 02:01:39 18° WNW 02:01:39 18° WNW visible
24 Jul -3.7 21:54:56 10° WSW 21:58:13 77° NNW 22:01:31 10° ENE visible
24 Jul -2.5 23:31:50 10° WNW 23:34:58 41° N 23:38:03 10° ENE visible
25 Jul -2.6 01:08:29 10° WNW 01:10:40 37° NW 01:10:40 37° NW visible
25 Jul -2.6 22:39:31 10° W 22:42:41 44° N 22:45:52 10° ENE visible
26 Jul -3.1 00:16:18 10° WNW 00:19:31 51° NNE 00:19:52 48° NE visible
26 Jul -2.9 21:47:11 10° W 21:50:24 52° NNW 21:53:37 10° ENE visible
26 Jul -2.7 23:24:04 10° WNW 23:27:14 44° N 23:29:09 20° ENE visible
27 Jul -1.7 01:00:36 10° WNW 01:01:47 20° WNW 01:01:47 20° WNW visible
27 Jul -2.6 22:31:47 10° WNW 22:34:56 41° N 22:38:04 10° ENE visible
